| time (UTC) | temp F | wind direction | speed knots | gust knots | rain 1hr in | rain 24hr in | rain mn in | humidity % | barometer mb |
| 20260506094436 | 58 | 41 | 3.5 | 8.7 | 0.00 | 0.00 | 0.00 | 72 | 1018.6 |
| 20260506093439 | 58 | 45 | 4.3 | 11.3 | 0.00 | 0.00 | 0.00 | 72 | 1018.7 |
| 20260506092438 | 58 | 56 | 4.3 | 7.8 | 0.00 | 0.00 | 0.00 | 72 | 1018.7 |
| 20260506091438 | 58 | 49 | 5.2 | 8.7 | 0.00 | 0.00 | 0.00 | 71 | 1018.7 |
| 20260506090437 | 58 | 64 | 2.6 | 7.8 | 0.00 | 0.00 | 0.00 | 72 | 1018.6 |
| 20260506085438 | 57 | 56 | 3.5 | 7.8 | 0.00 | 0.00 | 0.00 | 72 | 1018.7 |
| 20260506084438 | 56 | 52 | 4.3 | 7.8 | 0.00 | 0.00 | 0.00 | 73 | 1018.7 |
| 20260506083438 | 56 | 54 | 3.5 | 6.1 | 0.00 | 0.00 | 0.00 | 73 | 1018.6 |
| 20260506081437 | 55 | 47 | 0.9 | 2.6 | 0.00 | 0.00 | 0.00 | 72 | 1019.0 |
| 20260506073437 | 56 | 45 | 0.0 | 0.9 | 0.00 | 0.00 | 0.00 | 70 | 1019.4 |
| 20260506072437 | 56 | 45 | 1.7 | 1.7 | 0.00 | 0.00 | 0.00 | 70 | 1019.1 |
| 20260506071437 | 57 | 13 | 0.0 | 1.7 | 0.00 | 0.00 | 0.00 | 70 | 1019.3 |
| 20260506070450 | 57 | 34 | 1.7 | 2.6 | 0.00 | 0.00 | 0.00 | 71 | 1019.2 |
| 20260506062438 | 58 | 32 | 2.6 | 3.5 | 0.00 | 0.00 | 0.00 | 69 | 1019.2 |
| 20260506061438 | 58 | 30 | 2.6 | 3.5 | 0.00 | 0.00 | 0.00 | 69 | 1019.3 |
| 20260506050437 | 61 | 45 | 1.7 | 2.6 | 0.00 | 0.00 | 0.00 | 66 | 1018.9 |
| 20260506044437 | 62 | 38 | 1.7 | 3.5 | 0.00 | 0.00 | 0.00 | 66 | 1018.8 |
| 20260506043437 | 63 | 264 | 0.9 | 1.7 | 0.00 | 0.00 | 0.00 | 66 | 1019.0 |
| 20260506042445 | 63 | 45 | 0.9 | 1.7 | 0.00 | 0.00 | 0.00 | 66 | 1018.8 |
| 20260506041438 | 63 | 36 | 0.9 | 2.6 | 0.00 | 0.00 | 0.00 | 66 | 1018.6 |
| 20260506040438 | 64 | 68 | 0.0 | 0.9 | 0.00 | 0.00 | 0.00 | 66 | 1018.6 |
| 20260506035438 | 64 | 36 | 1.7 | 3.5 | 0.00 | 0.00 | 0.00 | 66 | 1018.6 |
| 20260506034438 | 65 | 41 | 0.9 | 2.6 | 0.00 | 0.00 | 0.00 | 66 | 1018.6 |
| 20260506033438 | 66 | 43 | 0.9 | 1.7 | 0.00 | 0.00 | 0.00 | 66 | 1018.7 |
| 20260506032436 | 66 | 26 | 0.0 | 0.9 | 0.00 | 0.00 | 0.00 | 66 | 1018.4 |
| 20260506031438 | 66 | 41 | 0.0 | 0.9 | 0.00 | 0.00 | 0.00 | 66 | 1018.4 |
| 20260506030437 | 66 | 22 | 0.0 | 0.9 | 0.00 | 0.00 | 0.00 | 66 | 1018.6 |
| 20260506025441 | 65 | 45 | 0.0 | 1.7 | 0.00 | 0.00 | 0.00 | 65 | 1018.2 |
| 20260506024437 | 66 | 45 | 0.9 | 1.7 | 0.00 | 0.00 | 0.00 | 65 | 1018.2 |
| 20260506022437 | 66 | 39 | 1.7 | 2.6 | 0.00 | 0.00 | 0.00 | 65 | 1018.2 |
| 20260506020438 | 65 | 58 | 0.0 | 0.9 | 0.00 | 0.00 | 0.00 | 66 | 1018.2 |
| 20260506015437 | 65 | 77 | 0.9 | 1.7 | 0.00 | 0.00 | 0.00 | 66 | 1018.1 |
| 20260506014438 | 65 | 22 | 1.7 | 3.5 | 0.00 | 0.00 | 0.00 | 65 | 1018.3 |
| 20260506012437 | 66 | 218 | 0.9 | 1.7 | 0.00 | 0.00 | 0.00 | 67 | 1018.4 |
| 20260506011439 | 65 | 248 | 0.9 | 3.5 | 0.00 | 0.00 | 0.00 | 68 | 1018.2 |
| 20260506005438 | 64 | 287 | 0.9 | 1.7 | 0.00 | 0.00 | 0.00 | 69 | 1018.4 |
| 20260506003437 | 64 | 148 | 0.9 | 2.6 | 0.00 | 0.00 | 0.00 | 69 | 1018.6 |
| 20260506001438 | 63 | 45 | 0.0 | 0.0 | 0.00 | 0.00 | 0.00 | 71 | 1018.8 |
| 20260506000438 | 62 | 45 | 0.9 | 1.7 | 0.00 | 0.00 | 0.00 | 71 | 1018.9 |
| 20260505235438 | 62 | 38 | 1.7 | 2.6 | 0.00 | 0.00 | 0.00 | 71 | 1018.9 |
| 20260505234436 | 61 | 148 | 0.0 | 0.9 | 0.00 | 0.00 | 0.00 | 72 | 1019.1 |
| 20260505233438 | 60 | 167 | 0.9 | 1.7 | 0.00 | 0.00 | 0.00 | 72 | 1019.2 |
| 20260505230438 | 58 | 45 | 2.6 | 3.5 | 0.00 | 0.00 | 0.00 | 70 | 1019.1 |
| 20260505225436 | 59 | 45 | 2.6 | 3.5 | 0.00 | 0.00 | 0.00 | 70 | 1019.1 |
| 20260505224437 | 59 | 36 | 0.0 | 0.9 | 0.00 | 0.00 | 0.00 | 71 | 1019.2 |
| 20260505223438 | 58 | 197 | 0.9 | 2.6 | 0.00 | 0.00 | 0.00 | 72 | 1019.0 |
| 20260505222437 | 57 | 176 | 0.9 | 2.6 | 0.00 | 0.00 | 0.00 | 72 | 1019.1 |
| 20260505221438 | 56 | 210 | 1.7 | 3.5 | 0.00 | 0.00 | 0.00 | 72 | 1019.0 |
| 20260505215437 | 56 | 39 | 0.9 | 2.6 | 0.00 | 0.00 | 0.00 | 70 | 1019.4 |
| 20260505214437 | 57 | 45 | 0.0 | 2.6 | 0.00 | 0.00 | 0.00 | 71 | 1019.4 |
| 20260505211438 | 58 | 90 | 0.9 | 6.1 | 0.00 | 0.00 | 0.00 | 71 | 1019.1 |
| 20260505210437 | 57 | 214 | 1.7 | 6.1 | 0.00 | 0.00 | 0.00 | 71 | 1019.4 |
| 20260505205439 | 57 | 96 | 1.7 | 5.2 | 0.00 | 0.00 | 0.00 | 72 | 1019.4 |
| 20260505204437 | 57 | 131 | 1.7 | 7.8 | 0.00 | 0.00 | 0.00 | 72 | 1019.4 |
| 20260505203439 | 57 | 218 | 1.7 | 3.5 | 0.00 | 0.00 | 0.00 | 73 | 1019.3 |
| 20260505202438 | 56 | 137 | 3.5 | 8.7 | 0.00 | 0.00 | 0.00 | 76 | 1019.3 |
| 20260505200438 | 54 | 208 | 3.5 | 8.7 | 0.00 | 0.00 | 0.00 | 81 | 1019.1 |
| 20260505195436 | 53 | 169 | 2.6 | 5.2 | 0.00 | 0.00 | 0.00 | 83 | 1018.9 |
| 20260505194437 | 52 | 264 | 1.7 | 5.2 | 0.00 | 0.00 | 0.00 | 85 | 1018.9 |
| 20260505193437 | 52 | 169 | 1.7 | 5.2 | 0.00 | 0.00 | 0.00 | 86 | 1018.9 |
| 20260505192437 | 51 | 184 | 3.5 | 7.0 | 0.00 | 0.00 | 0.00 | 88 | 1018.8 |
| 20260505185437 | 46 | 88 | 0.9 | 2.6 | 0.00 | 0.00 | 0.00 | 88 | 1019.0 |
| 20260505184438 | 44 | 204 | 1.7 | 3.5 | 0.00 | 0.00 | 0.00 | 88 | 1019.0 |
| 20260505183437 | 43 | 184 | 0.9 | 1.7 | 0.00 | 0.00 | 0.00 | 88 | 1019.1 |
| 20260505182437 | 41 | 129 | 0.9 | 3.5 | 0.00 | 0.00 | 0.00 | 88 | 1019.1 |
| 20260505181437 | 40 | 41 | 0.9 | 2.6 | 0.00 | 0.00 | 0.00 | 87 | 1019.2 |
| 20260505180438 | 40 | 38 | 2.6 | 5.2 | 0.00 | 0.00 | 0.00 | 87 | 1019.3 |
| 20260505175439 | 39 | 30 | 3.5 | 3.5 | 0.00 | 0.00 | 0.00 | 87 | 1019.3 |
| 20260505174437 | 38 | 30 | 3.5 | 3.5 | 0.00 | 0.00 | 0.00 | 87 | 1019.4 |
| 20260505173437 | 38 | 22 | 0.9 | 3.5 | 0.00 | 0.00 | 0.00 | 87 | 1019.4 |
| 20260505172436 | 38 | 34 | 2.6 | 3.5 | 0.00 | 0.00 | 0.00 | 87 | 1019.1 |
| 20260505171437 | 37 | 45 | 1.7 | 2.6 | 0.00 | 0.00 | 0.00 | 86 | 1019.2 |
| 20260505170437 | 37 | 45 | 1.7 | 3.5 | 0.00 | 0.00 | 0.00 | 86 | 1019.2 |
| 20260505164449 | 37 | 45 | 0.0 | 1.7 | 0.00 | 0.00 | 0.00 | 86 | 1019.8 |
| 20260505163437 | 37 | 45 | 0.9 | 1.7 | 0.00 | 0.00 | 0.00 | 86 | 1019.7 |
| 20260505162439 | 37 | 0 | 0.0 | 0.0 | 0.00 | 0.00 | 0.00 | 86 | 1019.5 |
| 20260505161438 | 37 | 69 | 0.0 | 1.7 | 0.00 | 0.00 | 0.00 | 86 | 1019.6 |
| 20260505160438 | 37 | 338 | 0.0 | 0.9 | 0.00 | 0.00 | 0.00 | 86 | 1019.5 |
| 20260505152437 | 37 | 45 | 0.9 | 1.7 | 0.00 | 0.00 | 0.00 | 86 | 1020.0 |
| 20260505151438 | 37 | 45 | 0.9 | 1.7 | 0.00 | 0.00 | 0.00 | 86 | 1020.2 |
| 20260505150437 | 37 | 45 | 1.7 | 1.7 | 0.00 | 0.00 | 0.00 | 85 | 1020.2 |
| 20260505140439 | 38 | 45 | 1.7 | 2.6 | 0.00 | 0.00 | 0.00 | 85 | 1020.9 |
| 20260505123437 | 38 | 45 | 0.9 | 1.7 | 0.00 | 0.00 | 0.00 | 85 | 1021.0 |
| 20260505121439 | 38 | 45 | 1.7 | 3.5 | 0.00 | 0.00 | 0.00 | 85 | 1021.4 |
| 20260505114437 | 39 | 45 | 0.9 | 1.7 | 0.00 | 0.00 | 0.00 | 85 | 1021.7 |
| 20260505113447 | 39 | 22 | 1.7 | 2.6 | 0.00 | 0.00 | 0.00 | 84 | 1021.9 |
| 20260505112437 | 39 | 34 | 0.9 | 1.7 | 0.00 | 0.00 | 0.00 | 84 | 1022.1 |
| 20260505111436 | 39 | 34 | 1.7 | 2.6 | 0.00 | 0.00 | 0.00 | 84 | 1022.1 |
| 20260505110439 | 39 | 32 | 1.7 | 1.7 | 0.00 | 0.00 | 0.00 | 84 | 1022.4 |
| 20260505100436 | 40 | 41 | 1.7 | 3.5 | 0.00 | 0.00 | 0.00 | 84 | 1022.9 |
| 20260505095437 | 40 | 38 | 1.7 | 2.6 | 0.00 | 0.00 | 0.00 | 84 | 1022.9 |